Location: Unspecified
(0.0000°N, 0.0000°E)
Time: 20:19:32
(UTC+00:00)

ARIANE 2 DEB - Pass Details

Date: 10 March 2026
Orbit: 701 x 35694 km, 8.0° (Epoch: 21 April)

Event Time Altitude Azimuth Distance (km) Brightness Sun altitude
Rises 14:08:22 0° 87° (E) 35,291 ? 60.2°
Reaches altitude 10° 15:39:09 10° 89° (E) 39,664 ? 37.7°
Maximum altitude 19:23:15 31° 95° (E) 29,338 ? -18.2°
Enters shadow 20:10:17 28° 97° (E) 23,277 ? -29.9°
Exits shadow 21:07:21 - 98° (E) 14,615 ? -44.2°
